Miscellaneous Local Product
Issued by NWS North Platte, NE

Home | Current Version | Previous Version | Text Only | Print | Product List | Glossary On
Versions: 1 2 3 4 5 6 7 8 9 10 11 12 13 14 15 16 17 18 19 20 21 22 23 24 25 26 27 28 29 30 31 32 33 34 35 36 37 38 39 40 41 42 43 44 45 46 47 48 49 50
506
AXUS43 KLBF 261110
MISLBF


WESTERN AND NORTH CENTRAL NEBRASKA HOURLY WEATHER ROUNDUP
NATIONAL WEATHER SERVICE NORTH PLATTE NE
600 AM CDT THU MAY 26 2016

NOTE: "FAIR" INDICATES FEW OR NO CLOUDS BELOW 12,000 FEET WITH NO
SIGNIFICANT WEATHER AND/OR OBSTRUCTIONS TO VISIBILITY.

NOTE: STATIONS NOT REPORTING VARIABLES SUCH AS SKY/WEATHER OR
PRESSURE ARE PROVIDED BY RAWS AND APRS NETWORKS AND ARE NOT UNDER
NATIONAL WEATHER SERVICE QUALITY CONTROL.

...OBSERVATIONS IN AND NEAR THE EASTERN PANHANDLE OF NEBRASKA...

CITY           SKY/WX    TMP DP  RH WIND       PRES   REMARKS
PINE RIDGE     CLEAR     37  35  92 CALM      29.91S
CHADRON        CLEAR     40  37  89 SW7       29.91S
ALLIANCE       CLEAR     37  36  96 W8        29.92S WCI  31
SIDNEY         CLEAR     44  41  89 W8        29.96R
CRESCENT LAKE    N/A     49  45  87 N9          N/A
BIG SPRINGS      N/A     52  48  86 CALM        N/A
$$

...OBSERVATIONS IN NORTHERN NEBRASKA AND FAR SOUTHERN SOUTH DAKOTA...

CITY           SKY/WX    TMP DP  RH WIND       PRES   REMARKS
WINNER         FAIR      51  47  86 CALM      29.87R
VALENTINE      PTCLDY    48  45  89 NW5       29.90R
THEDFORD       CLOUDY    57  48  71 S5        29.91R
AINSWORTH      MOCLDY    51  48  90 SW5       29.90R
O`NEILL        CLEAR     55  50  85 CALM      29.88R
ORD            CLOUDY    55  52  89 NW7       29.88R
BROKEN BOW     CLOUDY    55  51  86 NW13      29.90R
BUTTE            N/A     56  49  79 N3          N/A
CHAMBERS         N/A     53  49  87 CALM        N/A
EWING            N/A     58  52  80 CALM        N/A
$$

...OBSERVATIONS IN SOUTHWEST NEBRASKA AND FAR NORTHEAST COLORADO...

CITY           SKY/WX    TMP DP  RH WIND       PRES   REMARKS
WRAY           CLOUDY    50  50 100 SW5       29.95R
IMPERIAL       MOCLDY    53  49  86 NW3       29.93R
OGALLALA       CLOUDY    49  45  87 CALM      29.90S
NORTH PLATTE   CLOUDY    50  48  93 CALM      29.91S
MCCOOK         PTCLDY    48  46  93 W6        29.91R
LEXINGTON      MOCLDY    51  49  93 NE5       29.90R
PAXTON           N/A     53  51  92 CALM        N/A
STAPLETON        N/A     52  48  86 CALM        N/A
GOTHENBURG       N/A     54  49  83 CALM        N/A
CALLAWAY         N/A     52  50  93 CALM        N/A
$$

...OBSERVATIONS IN CENTRAL LINCOLN COUNTY AREA...

CITY           SKY/WX    TMP DP  RH WIND       PRES   REMARKS
N.P. AIRPORT   CLOUDY    50  48  93 CALM      29.91S
N.P. DOWNTOWN    N/A     53  51  95 CALM        N/A
N.P. SOUTHEAST   N/A     52  50  93 CALM        N/A
N.P. HILLCREST   N/A     52  49  90 NE3         N/A
$$

...SOME OBSERVATIONS FROM AROUND THE REGION...

CITY           SKY/WX    TMP DP  RH WIND       PRES   REMARKS
DENVER         CLOUDY    49  43  80 S7        30.01F
LARAMIE        CLEAR     32  29  88 CALM      30.06S
CHEYENNE       CLEAR     39  32  76 W10       30.02F WCI  32
SCOTTSBLUFF    CLEAR     44  39  82 NW9       29.94F
RAPID CITY     CLEAR     46  42  86 CALM      29.88S
BISMARCK       CLEAR     45  44  97 SW3       29.80S
PIERRE         CLEAR     48  46  93 NW5       29.83R
SIOUX FALLS    PTCLDY    52  48  86 E5        29.84S
OMAHA          PTCLDY    60  56  86 SE5       29.87R
GRAND ISLAND   PTCLDY    55  52  89 CALM      29.89R
KANSAS CITY    CLOUDY    64  61  90 CALM      29.89R
WICHITA        CLOUDY    75  71  87 N5        29.83S
OKLAHOMA CITY  CLOUDY    77  74  90 S15       29.86S
DALLAS         CLOUDY    78  72  81 S13       29.92R
AMARILLO       CLEAR     60  50  69 S9        29.88R
DODGE CITY     FOG       67  67 100 SE13      29.79S VSB 3/4
HAYS           CLOUDY    52  50  93 E9        29.82F
GOODLAND       CLOUDY    53  47  79 E6        29.92F
$$




USA.gov is the U.S. government's official web portal to all federal, state and local government web resources and services.